RH
49 35 77 66 74 86 87 74 77 80 93 82 86 86 95 97 98 99 28 20 62 79 60 42 28 34 52 61 95 98 100 94 75 77 67 70 66 49 40 37 37 37 38 48 46
33 37 45 57 66 67 84 70 72 78 86 81 80 86 99 93 91 88 87 37 71 56 45 60 30 36 58 60 77 97 100 98 82 64 86 80 74 50 47 40 37 38 38 44 55
29 27 26 47 78 70 90 59 73 80 92 84 74 72 92 96 96 88 93 69 44 98 71 76 40 45 61 79 69 76 90 91 86 93 89 91 74 65 58 48 39 36 38 47 61
24 28 19 37 46 72 83 33 60 81 68 64 76 80 82 88 94 83 88 78 47 55 80 79 41 57 74 70 80 96 78 71 83 99 98 94 92 72 65 49 41 40 39 38 63
27 31 40 29 46 65 66 25 56 70 57 70 72 62 81 81 96 99 84 74 41 31 79 81 46 64 70 64 85 88 83 70 77 82 77 95 99 99 71 49 51 42 39 37 37
28 35 51 28 48 67 48 22 33 53 60 63 61 63 62 76 84 97 99 78 37 45 93 92 56 49 83 83 94 87 83 82 79 70 81 83 89 100 79 58 46 41 40 36 33
23 35 51 26 58 70 28 27 35 48 50 54 47 43 62 84 79 96 100 65 50 41 88 98 61 39 66 80 90 83 84 84 68 65 73 73 95 81 85 57 49 48 47 38 34
19 29 50 31 38 67 31 29 37 36 40 41 36 34 38 55 58 65 97 82 40 64 75 88 89 42 48 86 78 80 84 97 76 65 72 65 67 72 73 58 45 44 49 52 50
22 23 47 42 28 46 47 44 39 30 32 34 34 34 35 48 49 56 74 94 32 82 98 86 90 67 66 97 85 89 75 79 81 71 69 54 48 56 55 52 50 45 43 48 48
20 26 40 57 39 33 30 33 42 44 39 38 50 62 60 55 56 57 41 94 61 95 99 99 95 89 77 98 96 92 93 78 81 71 70 60 48 47 48 49 49 41 45 37 43
18 27 40 53 58 45 44 50 51 52 52 46 63 77 71 72 58 48 43 80 82 100 98 97 96 72 80 96 91 86 79 69 77 77 70 66 56 48 44 42 38 37 40 36 38
19 26 36 48 55 56 55 60 70 76 88 90 82 85 73 78 77 42 43 73 64 76 100 99 100 74 74 85 86 71 78 73 69 71 72 72 54 47 54 48 45 42 38 34 34
17 24 38 38 50 56 53 44 56 82 94 98 98 99 71 68 62 47 48 58 86 99 99 100 98 81 75 78 85 90 80 72 72 70 69 69 69 58 43 52 58 50 50 42 37
15 17 25 34 37 42 49 56 61 69 94 100 100 91 94 97 74 48 57 97 94 97 98 100 96 95 82 81 91 89 86 80 74 72 71 73 74 52 42 41 50 48 46 47 43
27 20 18 24 35 40 47 50 60 84 92 97 97 77 75 98 72 44 71 98 91 99 98 98 86 87 87 82 77 81 86 80 80 70 74 74 75 57 42 36 32 34 36 45 44
23 30 25 22 20 32 39 53 54 66 93 98 94 98 96 100 92 78 98 98 91 96 98 93 100 92 89 98 88 85 87 80 79 80 83 69 66 55 44 28 27 24 29 36 34
21 25 30 27 30 27 38 42 54 86 86 87 98 98 100 100 89 96 98 98 98 99 98 99 99 92 92 83 91 85 77 96 97 98 92 64 65 54 35 26 23 25 27 33 36
19 23 35 33 28 30 36 43 54 87 96 97 97 95 97 94 65 100 99 81 88 82 98 96 99 85 76 81 74 88 79 83 89 96 81 65 69 54 38 29 40 34 35 40 40
19 20 30 34 32 29 37 44 64 77 77 87 88 90 96 98 99 100 95 80 81 74 68 86 96 99 94 79 90 96 98 90 69 70 79 57 50 44 38 31 30 40 47 48 48
33 22 23 35 38 38 42 55 67 71 80 81 86 78 89 92 98 93 95 89 81 80 76 77 85 97 99 96 90 100 94 98 82 83 79 62 60 45 35 31 34 32 38 40 44
27 30 27 28 42 44 50 59 61 67 70 83 85 74 72 85 85 88 79 88 98 90 88 85 82 99 100 99 100 100 99 98 80 64 83 68 51 46 40 36 33 38 41 43 45
26 31 31 28 42 48 59 64 57 62 71 77 80 78 76 83 81 79 74 77 82 91 88 88 91 100 98 99 97 100 100 89 72 84 66 65 48 36 39 44 42 46 50 52 54
28 29 34 36 35 39 56 72 81 72 69 69 77 80 80 79 78 80 78 78 81 87 89 92 85 97 98 97 99 99 89 88 87 73 65 65 43 36 33 34 47 56 59 58 53
18 32 36 37 40 39 38 76 98 83 68 68 67 70 73 78 79 75 71 66 80 85 83 77 76 73 70 67 69 90 89 90 99 98 79 68 55 50 46 32 38 56 57 51 57
5 18 33 39 40 45 36 53 87 91 93 87 72 76 88 87 82 78 73 68 65 80 82 79 72 75 80 73 75 73 76 81 84 79 87 77 73 63 49 42 38 43 51 56 55
5 9 13 25 48 44 48 62 86 87 99 90 92 88 89 90 81 80 77 77 74 71 72 76 71 68 67 65 61 55 53 71 85 83 81 76 62 53 41 52 61 54 56 53 47
5 6 6 10 36 43 48 54 73 100 92 95 98 80 88 92 90 86 84 81 72 74 75 74 79 76 71 65 71 70 36 40 39 44 50 76 44 60 51 44 52 65 57 53 54
Wind_Speed
36 39 36 32 31 27 23 17 17 15 14 15 24 28 20 30 26 25 30 29 23 25 26 28 29 32 34 36 36 43 37 41 41 35 29 21 19 17 17 22 21 14 11 15 17
38 40 39 29 27 23 17 14 14 13 11 13 17 19 20 29 33 31 21 26 28 29 23 29 29 31 31 29 38 38 37 42 42 39 33 26 16 12 7 19 23 17 14 15 18
39 42 40 27 23 21 12 11 10 9 9 10 13 16 16 18 32 26 23 26 33 28 21 24 27 31 32 29 33 45 44 32 37 36 42 31 21 13 4 11 24 24 16 16 17
37 44 41 29 24 18 10 10 6 6 7 6 6 11 15 15 10 29 24 28 30 33 24 24 31 33 33 36 34 30 35 35 29 37 34 36 19 14 5 12 19 20 18 16 13
36 44 44 31 25 17 11 9 6 6 5 2 2 2 8 8 12 19 26 21 32 34 29 27 32 33 33 36 33 32 30 20 25 18 24 35 23 12 5 13 18 22 21 20 16
34 42 45 35 24 14 11 10 6 5 6 7 7 7 5 2 17 11 15 29 30 37 32 28 33 33 31 30 32 28 17 29 28 29 15 15 29 10 14 10 19 19 26 25 18
32 40 41 35 26 15 13 11 9 8 7 8 8 8 5 5 9 14 14 33 36 38 31 25 24 34 28 29 28 11 19 18 30 26 28 17 20 24 22 18 18 16 16 18 20
32 33 36 33 25 16 13 12 8 7 6 4 4 4 3 3 7 9 17 28 38 39 33 29 24 29 23 17 26 17 27 23 25 30 28 26 31 28 23 26 26 24 22 22 22
28 30 31 31 26 18 12 11 6 3 3 2 4 6 4 3 8 13 15 24 42 37 34 33 28 31 26 20 25 23 19 32 23 32 33 34 37 32 33 26 23 27 27 28 27
26 27 25 25 25 20 17 14 10 7 3 5 3 2 3 3 9 12 15 17 43 38 30 37 31 34 30 30 25 31 22 35 25 29 34 35 37 29 36 35 34 34 32 31 32
24 24 22 22 20 21 20 17 14 12 9 7 3 4 2 2 6 13 16 18 39 32 24 35 30 45 36 33 22 22 26 30 29 22 27 31 29 29 30 26 26 40 37 32 31
21 21 21 22 19 15 15 15 19 17 13 14 6 7 5 6 7 14 17 21 35 35 21 30 31 37 32 28 21 20 21 23 24 24 22 24 28 23 30 34 26 21 24 30 33
19 20 24 23 20 16 11 13 12 11 14 14 12 11 10 7 8 14 22 23 31 30 19 34 27 34 33 29 21 17 18 21 20 18 21 25 30 28 32 36 39 40 31 26 27
20 18 21 25 20 17 15 12 14 6 9 20 10 10 18 13 9 15 22 16 27 20 19 20 20 32 30 29 29 18 16 14 13 15 14 19 8 22 31 33 40 38 38 36 34
22 18 18 19 22 19 15 17 13 8 4 8 16 9 6 12 15 19 15 10 16 17 14 16 21 28 27 26 29 20 17 14 11 15 18 16 12 28 23 25 35 40 40 38 38
22 22 18 18 19 20 18 13 11 6 7 17 9 9 11 13 12 19 14 13 17 18 14 23 22 25 28 22 28 20 16 10 8 16 8 26 22 20 25 32 25 34 38 40 38
21 22 22 20 18 16 18 13 4 9 3 11 12 13 14 15 11 5 23 20 15 21 15 22 23 20 26 24 24 22 17 4 4 6 5 14 18 41 16 19 26 23 36 39 39
20 21 23 19 15 14 15 8 10 9 11 9 12 14 10 15 17 24 21 20 17 11 21 9 8 22 22 27 27 27 25 7 5 4 4 10 16 30 25 29 18 23 27 33 36
16 18 19 18 14 12 11 10 5 3 6 7 11 12 7 7 11 15 20 15 19 15 8 12 8 20 16 29 25 28 28 21 5 3 1 10 22 34 20 28 23 23 23 28 30
18 17 17 17 14 12 12 10 7 8 6 5 4 4 7 4 3 5 5 13 18 18 18 10 7 16 17 19 25 23 30 14 11 3 3 7 14 19 14 22 25 27 23 23 22
20 16 15 16 13 12 11 10 8 6 3 2 3 3 3 5 4 4 6 9 7 19 15 10 9 9 15 23 23 25 24 13 10 5 4 3 7 12 22 24 17 26 25 22 19
18 16 15 15 12 10 8 7 4 5 4 2 5 6 6 5 5 5 8 4 12 11 14 10 5 8 13 14 21 26 26 22 11 7 9 3 6 7 10 15 19 21 21 19 17
18 18 18 15 11 13 9 4 3 3 6 4 3 9 8 9 4 7 8 8 12 12 10 10 7 8 3 7 10 23 29 31 25 17 17 6 5 4 6 13 20 24 21 18 18
22 17 18 16 17 14 11 5 4 4 4 3 3 6 7 10 11 5 10 9 17 15 12 10 9 9 12 3 9 20 24 31 34 23 19 23 20 16 13 9 17 25 21 17 14
35 20 16 16 15 14 13 10 4 6 6 5 4 5 7 5 6 12 9 11 14 17 14 12 10 15 11 8 8 9 21 26 30 34 24 34 34 25 19 15 9 15 16 16 15
32 25 23 18 17 16 14 11 11 10 9 9 10 10 9 12 10 11 10 9 11 15 17 17 11 13 15 14 14 16 16 21 32 33 32 30 22 20 19 14 15 18 17 18 17
28 26 26 21 17 16 16 16 12 13 12 9 10 12 13 14 15 11 11 13 11 12 13 16 13 10 6 10 14 16 27 29 29 31 33 41 33 26 23 24 23 20 18 14 16
Wind_Direction
351 346 343 330 318 315 310 306 292 291 275 259 250 253 244 220 230 238 224 225 217 205 201 197 199 197 205 214 211 209 200 214 215 226 201 211 205 186 191 206 202 196 192 199 194
355 350 343 335 324 326 311 306 304 291 275 246 243 244 234 225 226 237 235 219 210 205 201 194 197 192 194 208 208 206 202 205 217 209 216 214 191 165 157 207 209 194 192 196 196
358 353 347 341 335 330 322 314 309 301 279 267 258 256 245 234 222 220 236 214 203 196 187 186 191 193 191 195 204 215 221 211 220 201 210 214 201 192 167 234 216 207 192 193 196
2 1 353 350 348 341 338 335 328 323 309 289 268 254 237 235 229 227 222 221 211 198 190 185 188 189 192 196 202 203 218 225 229 215 216 214 210 199 225 237 212 207 205 199 204
6 6 2 357 344 352 350 355 352 4 15 42 34 232 233 237 205 209 214 207 202 196 185 189 191 189 192 198 200 203 212 208 200 216 250 240 218 206 157 231 221 214 213 200 202
4 11 7 6 9 11 12 5 19 34 72 76 70 72 81 167 210 184 164 185 199 187 186 186 194 190 192 194 196 205 210 215 215 208 210 248 244 213 173 178 210 207 211 217 211
7 14 12 15 21 28 32 30 56 77 81 87 70 59 88 137 191 219 179 177 194 183 192 181 184 194 192 200 193 193 178 204 225 211 210 223 210 234 202 193 191 196 200 206 215
10 15 17 20 28 35 39 43 65 70 91 86 47 19 310 199 189 224 182 182 185 180 183 178 179 191 194 186 190 185 186 197 204 203 210 214 221 206 202 205 210 207 207 207 221
10 14 20 26 33 40 43 30 27 3 345 326 335 319 296 231 213 213 200 181 179 176 178 177 179 177 183 176 184 192 188 200 201 205 209 214 227 210 212 214 212 226 222 219 223
14 14 18 25 37 46 48 35 30 36 349 318 328 80 58 224 200 201 196 181 176 177 181 170 176 178 182 181 189 194 200 195 195 201 216 225 225 226 223 230 228 238 236 233 232
17 20 20 25 24 45 62 52 50 45 51 36 52 69 76 149 192 186 180 180 175 183 176 170 182 188 185 188 202 204 195 203 202 208 220 230 235 230 233 230 230 231 236 238 237
22 17 15 24 25 22 38 62 65 68 52 50 62 78 91 129 147 169 172 173 176 178 186 188 195 191 190 190 196 202 203 217 216 217 228 236 245 238 222 229 230 229 230 235 237
15 17 22 24 23 24 14 15 29 62 48 44 46 59 115 116 151 160 166 181 185 178 187 180 195 193 194 191 185 189 208 212 213 213 231 243 254 240 226 224 231 237 239 243 240
5 12 10 20 24 13 22 27 10 357 50 45 50 70 98 83 128 148 165 163 190 193 159 167 193 193 196 200 199 202 208 212 206 234 240 224 270 252 237 227 222 227 236 240 244
357 6 7 11 20 12 360 16 31 22 52 21 63 98 91 79 129 143 176 174 184 154 161 176 195 191 194 203 205 208 211 196 252 227 228 216 239 260 241 233 228 226 231 234 237
356 357 2 4 11 10 4 358 27 59 19 21 70 104 99 90 132 163 150 131 185 202 152 157 168 180 196 197 203 205 213 204 225 196 230 226 224 269 248 239 240 233 235 238 241
352 355 359 3 2 9 11 9 32 53 88 31 56 79 97 112 143 154 137 147 139 152 162 156 172 181 194 200 201 203 186 145 195 212 227 213 225 239 244 248 234 242 237 236 239
348 355 0 4 4 19 24 29 57 64 83 91 73 54 91 127 143 136 152 153 170 176 156 158 169 189 201 201 206 205 197 183 200 200 226 194 227 241 257 240 236 231 238 242 246
342 352 1 8 11 11 28 50 69 65 89 84 84 78 67 86 157 165 169 172 177 182 160 180 186 196 189 203 207 207 208 215 263 208 186 222 246 249 257 240 238 239 229 233 241
354 342 352 7 13 37 62 78 93 108 90 73 60 91 107 125 124 134 166 178 194 185 203 192 171 195 205 202 210 216 222 197 212 148 258 259 251 243 244 243 232 231 231 232 237
0 351 356 2 18 45 74 84 73 67 99 142 122 149 177 137 176 192 187 171 167 184 200 190 204 192 199 209 210 210 208 189 187 185 185 287 264 248 247 243 248 233 233 237 240
10 9 3 359 13 33 39 48 51 25 45 168 201 175 181 193 188 217 199 182 173 177 170 165 175 160 200 223 225 227 216 202 198 200 220 229 283 276 251 227 236 240 234 236 238
23 20 10 11 4 3 359 342 335 327 345 331 211 201 219 224 237 234 207 204 189 187 188 187 194 140 175 245 209 215 220 224 219 218 226 197 238 244 252 227 226 235 234 238 243
31 20 7 2 349 338 337 317 318 306 288 273 273 242 226 234 242 257 234 225 205 205 216 219 229 216 203 214 215 212 216 221 221 226 228 229 242 264 285 270 227 225 232 228 223
38 29 12 353 347 342 317 301 311 301 281 262 238 220 217 250 267 260 258 224 218 215 220 223 240 231 241 230 219 227 224 219 220 228 232 248 251 265 265 257 235 224 215 218 233
34 25 18 356 352 343 325 290 282 282 278 270 265 227 228 239 247 274 270 252 239 227 229 233 244 244 247 247 249 248 232 227 237 242 243 245 249 244 244 231 226 214 226 243 246
24 25 15 5 345 337 327 300 266 271 278 252 261 262 231 236 240 243 252 257 255 247 241 236 242 247 249 245 249 267 247 239 238 240 242 240 248 240 240 240 237 229 249 252 272